• In Hungary
  • List of Countries
  • For 7 days
  • Water Temperature
  • Satellite Maps
  • Weather Map
  • News
  • Weather Widgets
  • user-avatar
    Login

    Hourly Weather Koszwaly

    Today, 16 July, Monday

    Time Temperature Precipitation Wind Pressure Humidity
    00:00 +17°C° 0 mm 4 mps 760 mmHg 91%
    01:00 +17°C° 0 mm 4 mps 760 mmHg 90%
    02:00 +17°C° 0.1 mm 4 mps 760 mmHg 90%
    03:00 +17°C° 0.1 mm 4 mps 760 mmHg 90%
    04:00 +17°C° 0.1 mm 4 mps 760 mmHg 90%
    05:00 +18°C° 0.3 mm 4 mps 759 mmHg 87%
    06:00 +19°C° 0.3 mm 4 mps 759 mmHg 84%
    07:00 +21°C° 0.3 mm 4 mps 759 mmHg 81%
    08:00 +22°C° 0.2 mm 4 mps 759 mmHg 78%
    09:00 +23°C° 0.2 mm 5 mps 759 mmHg 74%
    10:00 +25°C° 0.2 mm 5 mps 759 mmHg 71%
    11:00 +25°C° 0.5 mm 5 mps 759 mmHg 71%
    12:00 +25°C° 0.5 mm 5 mps 758 mmHg 71%
    13:00 +26°C° 0.5 mm 5 mps 758 mmHg 72%
    14:00 +25°C° 0.5 mm 5 mps 758 mmHg 73%
    15:00 +25°C° 0.5 mm 5 mps 758 mmHg 74%
    16:00 +25°C° 0.5 mm 5 mps 758 mmHg 75%
    17:00 +23°C° 0.4 mm 5 mps 757 mmHg 78%
    18:00 +22°C° 0.4 mm 5 mps 757 mmHg 81%
    19:00 +21°C° 0.4 mm 5 mps 757 mmHg 83%
    20:00 +21°C° 0.5 mm 4 mps 757 mmHg 86%
    21:00 +20°C° 0.5 mm 4 mps 757 mmHg 89%
    22:00 +19°C° 0.5 mm 3 mps 757 mmHg 92%
    23:00 +19°C° 0.7 mm 3 mps 756 mmHg 93%

    Tomorrow, 17 July, Tuesday

    Time Temperature Precipitation Wind Pressure Humidity
    00:00 +19°C° 0.7 mm 3 mps 756 mmHg 94%
    01:00 +19°C° 0.7 mm 4 mps 756 mmHg 96%
    02:00 +19°C° 1.4 mm 4 mps 756 mmHg 96%
    03:00 +19°C° 1.4 mm 4 mps 755 mmHg 96%
    04:00 +19°C° 1.4 mm 4 mps 755 mmHg 97%
    05:00 +20°C° 0.8 mm 4 mps 755 mmHg 96%
    06:00 +20°C° 0.8 mm 4 mps 755 mmHg 95%
    07:00 +20°C° 0.8 mm 4 mps 755 mmHg 95%
    08:00 +21°C° 0.2 mm 4 mps 755 mmHg 91%
    09:00 +22°C° 0.2 mm 5 mps 755 mmHg 88%
    10:00 +23°C° 0.2 mm 5 mps 755 mmHg 84%
    11:00 +25°C° 0.5 mm 5 mps 754 mmHg 83%
    12:00 +25°C° 0.5 mm 5 mps 754 mmHg 81%
    13:00 +26°C° 0.5 mm 5 mps 754 mmHg 79%
    14:00 +25°C° 0.9 mm 5 mps 754 mmHg 82%
    15:00 +25°C° 0.9 mm 4 mps 754 mmHg 84%
    16:00 +25°C° 0.9 mm 4 mps 754 mmHg 86%
    17:00 +23°C° 1 mm 4 mps 754 mmHg 88%
    18:00 +22°C° 1 mm 4 mps 754 mmHg 91%
    19:00 +21°C° 1 mm 4 mps 754 mmHg 93%
    20:00 +21°C° 0.7 mm 3 mps 754 mmHg 93%
    21:00 +21°C° 0.7 mm 3 mps 754 mmHg 94%
    22:00 +20°C° 0.7 mm 3 mps 754 mmHg 94%
    23:00 +20°C° 0.1 mm 3 mps 754 mmHg 94%

    Day after tomorrow, 18 July, Wednesday

    Time Temperature Precipitation Wind Pressure Humidity
    00:00 +20°C° 0.1 mm 3 mps 754 mmHg 94%
    01:00 +20°C° 0.1 mm 3 mps 754 mmHg 94%
    02:00 +20°C° 0 mm 3 mps 754 mmHg 94%
    03:00 +20°C° 0 mm 3 mps 754 mmHg 94%
    04:00 +20°C° 0 mm 3 mps 754 mmHg 94%
    05:00 +21°C° 0.1 mm 3 mps 754 mmHg 92%
    06:00 +22°C° 0.1 mm 3 mps 754 mmHg 91%
    07:00 +22°C° 0.1 mm 3 mps 754 mmHg 89%
    08:00 +24°C° 0.4 mm 3 mps 755 mmHg 85%
    09:00 +25°C° 0.4 mm 3 mps 755 mmHg 82%
    10:00 +27°C° 0.4 mm 3 mps 755 mmHg 78%
    11:00 +27°C° 0.6 mm 3 mps 755 mmHg 76%
    12:00 +27°C° 0.6 mm 3 mps 755 mmHg 75%
    13:00 +28°C° 0.6 mm 3 mps 755 mmHg 73%
    14:00 +28°C° 0.3 mm 3 mps 755 mmHg 73%
    15:00 +27°C° 0.3 mm 3 mps 756 mmHg 74%
    16:00 +27°C° 0.3 mm 4 mps 756 mmHg 74%
    17:00 +26°C° 0.1 mm 4 mps 756 mmHg 78%
    18:00 +25°C° 0.1 mm 4 mps 756 mmHg 81%
    19:00 +23°C° 0.1 mm 4 mps 756 mmHg 85%
    20:00 +22°C° 0 mm 4 mps 756 mmHg 87%
    21:00 +21°C° 0 mm 4 mps 757 mmHg 88%
    22:00 +20°C° 0 mm 4 mps 757 mmHg 90%
    23:00 +20°C° 0 mm 4 mps 757 mmHg 90%

    19 July, Thursday

    Time Temperature Precipitation Wind Pressure Humidity
    00:00 +20°C° 0 mm 4 mps 757 mmHg 91%
    01:00 +20°C° 0 mm 4 mps 757 mmHg 91%
    02:00 +19°C° 0 mm 4 mps 757 mmHg 92%
    03:00 +19°C° 0 mm 4 mps 757 mmHg 93%
    04:00 +19°C° 0 mm 4 mps 757 mmHg 93%
    05:00 +20°C° 0 mm 4 mps 757 mmHg 91%
    06:00 +21°C° 0 mm 4 mps 757 mmHg 88%
    07:00 +21°C° 0 mm 4 mps 758 mmHg 85%
    08:00 +22°C° 0 mm 4 mps 758 mmHg 81%
    09:00 +25°C° 0 mm 4 mps 758 mmHg 77%
    10:00 +26°C° 0 mm 4 mps 758 mmHg 72%
    11:00 +26°C° 0.1 mm 4 mps 758 mmHg 71%
    12:00 +27°C° 0.1 mm 4 mps 758 mmHg 69%
    13:00 +27°C° 0.1 mm 4 mps 758 mmHg 68%
    14:00 +27°C° 0 mm 5 mps 758 mmHg 68%
    15:00 +27°C° 0 mm 5 mps 758 mmHg 68%
    16:00 +27°C° 0 mm 5 mps 758 mmHg 68%
    17:00 +26°C° 0 mm 4 mps 758 mmHg 73%
    18:00 +23°C° 0 mm 4 mps 758 mmHg 78%
    19:00 +22°C° 0 mm 4 mps 758 mmHg 82%
    20:00 +21°C° 0 mm 4 mps 758 mmHg 86%
    21:00 +20°C° 0 mm 4 mps 758 mmHg 89%
    22:00 +19°C° 0 mm 4 mps 759 mmHg 92%
    23:00 +19°C° 0 mm 4 mps 759 mmHg 92%

    20 July, Friday

    Time Temperature Precipitation Wind Pressure Humidity
    00:00 +19°C° 0 mm 3 mps 758 mmHg 92%
    01:00 +18°C° 0 mm 3 mps 758 mmHg 92%
    02:00 +18°C° 0 mm 3 mps 758 mmHg 92%
    03:00 +18°C° 0 mm 3 mps 758 mmHg 92%
    04:00 +18°C° 0 mm 3 mps 758 mmHg 92%
    05:00 +20°C° 0 mm 3 mps 758 mmHg 88%
    06:00 +21°C° 0 mm 3 mps 758 mmHg 83%
    07:00 +22°C° 0 mm 3 mps 758 mmHg 79%
    08:00 +25°C° 0 mm 3 mps 758 mmHg 74%
    09:00 +26°C° 0 mm 3 mps 758 mmHg 69%
    10:00 +27°C° 0 mm 3 mps 758 mmHg 63%
    11:00 +28°C° 0.1 mm 3 mps 758 mmHg 62%
    12:00 +28°C° 0.1 mm 3 mps 758 mmHg 60%
    13:00 +28°C° 0.1 mm 4 mps 758 mmHg 59%
    14:00 +28°C° 0.1 mm 4 mps 758 mmHg 62%
    15:00 +27°C° 0.1 mm 4 mps 758 mmHg 64%
    16:00 +26°C° 0.1 mm 4 mps 759 mmHg 67%
    17:00 +25°C° 0 mm 4 mps 759 mmHg 71%
    18:00 +24°C° 0 mm 3 mps 759 mmHg 75%
    19:00 +22°C° 0 mm 3 mps 759 mmHg 79%
    20:00 +20°C° 0 mm 3 mps 759 mmHg 81%
    21:00 +19°C° 0 mm 3 mps 759 mmHg 83%
    22:00 +18°C° 0 mm 2 mps 759 mmHg 85%
    23:00 +18°C° 0 mm 2 mps 759 mmHg 84%

    21 July, Saturday

    Time Temperature Precipitation Wind Pressure Humidity
    00:00 +17°C° 0 mm 3 mps 759 mmHg 83%
    01:00 +17°C° 0 mm 3 mps 759 mmHg 82%
    02:00 +16°C° 0 mm 3 mps 759 mmHg 81%
    03:00 +16°C° 0 mm 3 mps 759 mmHg 80%
    04:00 +16°C° 0 mm 2 mps 759 mmHg 79%
    05:00 +17°C° 0 mm 2 mps 759 mmHg 75%
    06:00 +19°C° 0 mm 2 mps 759 mmHg 71%
    07:00 +20°C° 0 mm 2 mps 760 mmHg 67%
    08:00 +23°C° 0 mm 2 mps 760 mmHg 61%
    09:00 +24°C° 0 mm 2 mps 760 mmHg 56%
    10:00 +26°C° 0 mm 2 mps 760 mmHg 50%
    11:00 +27°C° 0 mm 2 mps 760 mmHg 48%
    12:00 +27°C° 0 mm 2 mps 760 mmHg 47%
    13:00 +28°C° 0 mm 2 mps 760 mmHg 45%
    14:00 +27°C° 0 mm 3 mps 760 mmHg 48%
    15:00 +27°C° 0 mm 3 mps 760 mmHg 50%
    16:00 +27°C° 0 mm 3 mps 759 mmHg 52%
    17:00 +25°C° 0 mm 3 mps 759 mmHg 60%
    18:00 +22°C° 0 mm 3 mps 759 mmHg 68%
    19:00 +21°C° 0 mm 3 mps 759 mmHg 76%
    20:00 +19°C° 0 mm 2 mps 760 mmHg 78%
    21:00 +18°C° 0 mm 2 mps 760 mmHg 80%
    22:00 +18°C° 0 mm 1 mps 760 mmHg 83%
    23:00 +16°C° 0 mm 1 mps 760 mmHg 82%
    Show more